When you browse on this site, cookies collect data to enhance your experience and personalize the content and advertising you see.
Visit our Privacy Policy to learn more. By continuing to use the site, you agree to this use of cookies and data.
  • In Czech Republic
  • List of Countries
  • For 7 days
  • Water Temperature
  • Satellite Maps
  • Weather Map
  • Weather Widgets
  • user-avatar
    Login

    Hourly Weather Alcala la Real

    Today, 19 January, Saturday

    Time Temperature Precipitation Wind Pressure Humidity
    00:00 +2°C° 0 mm 1 mps 683 mmHg 88%
    01:00 +2°C° 0 mm 1 mps 683 mmHg 88%
    02:00 +2°C° 0 mm 1 mps 683 mmHg 89%
    03:00 +2°C° 0 mm 1 mps 682 mmHg 89%
    04:00 +2°C° 0 mm 1 mps 682 mmHg 89%
    05:00 +1°C° 0 mm 1 mps 682 mmHg 89%
    06:00 +1°C° 0 mm 1 mps 682 mmHg 90%
    07:00 +2°C° 0 mm 1 mps 682 mmHg 87%
    08:00 +3°C° 0 mm 1 mps 682 mmHg 83%
    09:00 +4°C° 0 mm 1 mps 683 mmHg 80%
    10:00 +6°C° 0 mm 1 mps 683 mmHg 75%
    11:00 +7°C° 0 mm 1 mps 683 mmHg 70%
    12:00 +7°C° 0 mm 2 mps 683 mmHg 70%
    13:00 +7°C° 0.2 mm 2 mps 683 mmHg 72%
    14:00 +7°C° 0.2 mm 2 mps 682 mmHg 75%
    15:00 +7°C° 0.2 mm 2 mps 682 mmHg 78%
    16:00 +7°C° 0.5 mm 2 mps 682 mmHg 83%
    17:00 +6°C° 0.5 mm 2 mps 681 mmHg 88%
    18:00 +5°C° 0.5 mm 2 mps 681 mmHg 92%
    19:00 +5°C° 1.2 mm 2 mps 681 mmHg 92%
    20:00 +5°C° 1.2 mm 2 mps 680 mmHg 92%
    21:00 +4°C° 1.2 mm 3 mps 680 mmHg 92%
    22:00 +5°C° 1.1 mm 3 mps 680 mmHg 93%
    23:00 +5°C° 1.1 mm 3 mps 680 mmHg 93%

    Tomorrow, 20 January, Sunday

    Time Temperature Precipitation Wind Pressure Humidity
    00:00 +5°C° 1.1 mm 3 mps 679 mmHg 93%
    01:00 +5°C° 0.6 mm 3 mps 679 mmHg 94%
    02:00 +5°C° 0.6 mm 3 mps 679 mmHg 95%
    03:00 +7°C° 0.6 mm 3 mps 678 mmHg 96%
    04:00 +5°C° 1.5 mm 3 mps 678 mmHg 96%
    05:00 +5°C° 1.5 mm 3 mps 678 mmHg 96%
    06:00 +5°C° 1.5 mm 3 mps 677 mmHg 97%
    07:00 +5°C° 1.5 mm 3 mps 678 mmHg 96%
    08:00 +5°C° 1.5 mm 3 mps 678 mmHg 96%
    09:00 +7°C° 1.5 mm 3 mps 678 mmHg 96%
    10:00 +7°C° 0.7 mm 3 mps 678 mmHg 94%
    11:00 +7°C° 0.7 mm 3 mps 678 mmHg 93%
    12:00 +5°C° 0.7 mm 3 mps 679 mmHg 91%
    13:00 +7°C° 0.2 mm 3 mps 679 mmHg 85%
    14:00 +6°C° 0.2 mm 4 mps 679 mmHg 78%
    15:00 +7°C° 0.2 mm 4 mps 679 mmHg 72%
    16:00 +7°C° 0 mm 3 mps 680 mmHg 73%
    17:00 +6°C° 0 mm 2 mps 680 mmHg 74%
    18:00 +5°C° 0 mm 2 mps 680 mmHg 75%
    19:00 +5°C° 0 mm 1 mps 681 mmHg 76%
    20:00 +5°C° 0 mm 1 mps 681 mmHg 77%
    21:00 +3°C° 0 mm 0 mps 682 mmHg 78%
    22:00 +3°C° 0 mm 0 mps 682 mmHg 79%
    23:00 +2°C° 0 mm 0 mps 682 mmHg 80%

    Day after tomorrow, 21 January, Monday

    Time Temperature Precipitation Wind Pressure Humidity
    00:00 +2°C° 0 mm 0 mps 683 mmHg 81%
    01:00 +2°C° 0 mm 0 mps 683 mmHg 81%
    02:00 +2°C° 0 mm 1 mps 683 mmHg 82%
    03:00 +2°C° 0 mm 1 mps 683 mmHg 82%
    04:00 +2°C° 0 mm 1 mps 683 mmHg 82%
    05:00 +1°C° 0 mm 1 mps 683 mmHg 83%
    06:00 +1°C° 0 mm 1 mps 683 mmHg 83%
    07:00 +2°C° 0 mm 1 mps 683 mmHg 79%
    08:00 +3°C° 0 mm 1 mps 684 mmHg 76%
    09:00 +4°C° 0 mm 1 mps 685 mmHg 72%
    10:00 +5°C° 0 mm 1 mps 685 mmHg 67%
    11:00 +5°C° 0 mm 2 mps 685 mmHg 61%
    12:00 +7°C° 0 mm 2 mps 685 mmHg 56%
    13:00 +7°C° 0 mm 2 mps 685 mmHg 54%
    14:00 +7°C° 0 mm 3 mps 685 mmHg 53%
    15:00 +7°C° 0 mm 3 mps 685 mmHg 52%
    16:00 +6°C° 0 mm 2 mps 685 mmHg 58%
    17:00 +5°C° 0 mm 2 mps 685 mmHg 64%
    18:00 +4°C° 0 mm 1 mps 685 mmHg 69%
    19:00 +4°C° 0 mm 1 mps 685 mmHg 71%
    20:00 +3°C° 0 mm 1 mps 685 mmHg 73%
    21:00 +2°C° 0 mm 0 mps 685 mmHg 75%
    22:00 +1°C° 0 mm 0 mps 685 mmHg 75%
    23:00 +1°C° 0 mm 0 mps 685 mmHg 76%

    22 January, Tuesday

    Time Temperature Precipitation Wind Pressure Humidity
    00:00 +1°C° 0 mm 0 mps 685 mmHg 76%
    01:00 +1°C° 0 mm 1 mps 685 mmHg 76%
    02:00 +1°C° 0 mm 1 mps 684 mmHg 76%
    03:00 +1°C° 0 mm 1 mps 684 mmHg 75%
    04:00 +1°C° 0 mm 1 mps 684 mmHg 75%
    05:00 +1°C° 0 mm 1 mps 684 mmHg 75%
    06:00 +1°C° 0 mm 1 mps 683 mmHg 75%
    07:00 +2°C° 0 mm 1 mps 684 mmHg 74%
    08:00 +3°C° 0 mm 1 mps 684 mmHg 73%
    09:00 +4°C° 0 mm 1 mps 684 mmHg 71%
    10:00 +4°C° 0 mm 2 mps 684 mmHg 67%
    11:00 +4°C° 0 mm 3 mps 684 mmHg 64%
    12:00 +5°C° 0 mm 3 mps 684 mmHg 60%
    13:00 +5°C° 0 mm 3 mps 683 mmHg 64%
    14:00 +4°C° 0 mm 3 mps 682 mmHg 67%
    15:00 +4°C° 0 mm 3 mps 681 mmHg 71%
    16:00 +4°C° 0.2 mm 3 mps 681 mmHg 77%
    17:00 +3°C° 0.2 mm 3 mps 681 mmHg 84%
    18:00 +4°C° 0.2 mm 2 mps 681 mmHg 90%
    19:00 +3°C° 0.3 mm 3 mps 681 mmHg 89%
    20:00 +2°C° 0.3 mm 3 mps 681 mmHg 89%
    21:00 +1°C° 0.3 mm 4 mps 681 mmHg 88%
    22:00 +1°C° 0 mm 3 mps 681 mmHg 89%
    23:00 0°C° 0 mm 3 mps 681 mmHg 91%

    23 January, Wednesday

    Time Temperature Precipitation Wind Pressure Humidity
    00:00 -1°C° 0 mm 2 mps 681 mmHg 92%
    01:00 +1°C° 0 mm 2 mps 681 mmHg 91%
    02:00 +1°C° 0 mm 2 mps 681 mmHg 90%
    03:00 +1°C° 0 mm 2 mps 681 mmHg 89%
    04:00 +1°C° 0 mm 2 mps 681 mmHg 90%
    05:00 -1°C° 0 mm 2 mps 681 mmHg 91%
    06:00 -1°C° 0 mm 2 mps 681 mmHg 93%
    07:00 -1°C° 0 mm 2 mps 681 mmHg 91%
    08:00 +1°C° 0 mm 2 mps 681 mmHg 89%
    09:00 +1°C° 0 mm 2 mps 681 mmHg 86%
    10:00 +1°C° 0 mm 3 mps 681 mmHg 83%
    11:00 +1°C° 0 mm 4 mps 680 mmHg 80%
    12:00 +3°C° 0 mm 4 mps 680 mmHg 77%
    13:00 +3°C° 0.1 mm 4 mps 679 mmHg 80%
    14:00 +3°C° 0.1 mm 4 mps 678 mmHg 83%
    15:00 +4°C° 0.1 mm 4 mps 678 mmHg 86%
    16:00 +4°C° 0.2 mm 4 mps 678 mmHg 88%
    17:00 +4°C° 0.2 mm 4 mps 678 mmHg 90%
    18:00 +4°C° 0.2 mm 3 mps 678 mmHg 92%
    19:00 +3°C° 0.1 mm 3 mps 678 mmHg 93%
    20:00 +3°C° 0.1 mm 3 mps 679 mmHg 94%
    21:00 +4°C° 0.1 mm 2 mps 679 mmHg 95%
    22:00 +4°C° 0 mm 2 mps 679 mmHg 95%
    23:00 +4°C° 0 mm 2 mps 679 mmHg 95%

    24 January, Thursday

    Time Temperature Precipitation Wind Pressure Humidity
    00:00 +3°C° 0 mm 2 mps 679 mmHg 95%
    01:00 +3°C° 0 mm 2 mps 679 mmHg 95%
    02:00 +3°C° 0 mm 2 mps 679 mmHg 95%
    03:00 +3°C° 0 mm 2 mps 679 mmHg 95%
    04:00 +4°C° 0 mm 1 mps 679 mmHg 95%
    05:00 +4°C° 0 mm 1 mps 679 mmHg 95%
    06:00 +3°C° 0 mm 1 mps 679 mmHg 96%
    07:00 +4°C° 0 mm 1 mps 679 mmHg 93%
    08:00 +4°C° 0 mm 1 mps 679 mmHg 91%
    09:00 +4°C° 0 mm 2 mps 679 mmHg 89%
    10:00 +4°C° 0 mm 2 mps 679 mmHg 85%
    11:00 +5°C° 0 mm 2 mps 679 mmHg 82%
    12:00 +5°C° 0 mm 3 mps 678 mmHg 79%
    13:00 +5°C° 0.1 mm 3 mps 678 mmHg 81%
    14:00 +5°C° 0.1 mm 2 mps 677 mmHg 84%
    15:00 +5°C° 0.1 mm 2 mps 677 mmHg 87%
    16:00 +5°C° 0.1 mm 2 mps 677 mmHg 88%
    17:00 +5°C° 0.1 mm 2 mps 677 mmHg 90%
    18:00 +5°C° 0.1 mm 2 mps 677 mmHg 92%
    19:00 +5°C° 0 mm 2 mps 677 mmHg 92%
    20:00 +4°C° 0 mm 2 mps 677 mmHg 93%
    21:00 +5°C° 0 mm 1 mps 677 mmHg 94%
    22:00 +5°C° 0 mm 1 mps 677 mmHg 94%
    23:00 +5°C° 0 mm 1 mps 677 mmHg 95%
    Show more